GW1682 Weather Reports


time (UTC)temp
C
wind
direction
speed
KPH
gust
KPH
rain 1hr
cm
rain 24hr
cm
rain mn
cm
humidity
%
barometer
mb
20260504223218 12 149 1.6 4.8 0.00 0.00 0.00 60 1017.3
20260504221712 12 158 3.2 4.8 0.00 0.00 0.00 58 1017.4
20260504220209 12 151 3.2 3.2 0.00 0.00 0.00 55 1017.5
20260504214708 12 158 0.0 0.0 0.00 0.00 0.00 53 1017.5
20260504213204 12 148 0.0 0.0 0.00 0.00 0.00 54 1017.5
20260504211704 13 155 0.0 0.0 0.00 0.00 0.00 53 1017.4
20260504210207 13 148 0.0 3.2 0.00 0.00 0.00 53 1017.5
20260504204704 13 159 0.0 0.0 0.00 0.00 0.00 50 1017.5
20260504203202 13 141 0.0 0.0 0.00 0.00 0.00 52 1017.5
20260504194708 13 161 0.0 4.8 0.00 0.00 0.00 53 1017.8
20260504193203 13 165 3.2 3.2 0.00 0.00 0.00 54 1017.5
20260504190203 13 145 1.6 3.2 0.00 0.00 0.00 61 1017.5
20260504184704 14 149 1.6 3.2 0.00 0.00 0.00 63 1017.4
20260504183202 14 148 1.6 3.2 0.00 0.00 0.00 63 1017.2
20260504181703 14 144 0.0 6.4 0.00 0.00 0.00 62 1017.2
20260504180204 15 142 1.6 4.8 0.00 0.00 0.00 62 1017.0
20260504174701 15 266 0.0 3.2 0.00 0.00 0.00 60 1017.0
20260504173158 15 248 1.6 4.8 0.00 0.00 0.00 60 1016.9
20260504170159 16 247 1.6 6.4 0.00 0.00 0.00 57 1016.8
20260504150150 20 324 8.0 19.3 0.00 0.00 0.00 29 1016.7
20260504140142 20 11 4.8 19.3 0.00 0.00 0.00 31 1016.8
20260504130137 20 292 8.0 22.5 0.00 0.00 0.00 32 1017.0
20260504120132 18 354 0.0 20.9 0.00 0.00 0.00 36 1017.5
20260504110130 18 6 6.4 22.5 0.00 0.00 0.00 36 1018.2
20260504090130 16 302 6.4 16.1 0.00 0.00 0.00 41 1018.8
20260504081630 15 71 0.0 6.4 0.00 0.00 0.00 47 1018.7
20260504080132 15 282 3.2 11.3 0.00 0.00 0.00 48 1018.8
20260504070131 14 0 1.6 9.7 0.00 0.00 0.00 53 1018.5
20260504050129 11 307 0.0 4.8 0.00 0.05 0.00 64 1018.0
20260504044629 10 171 0.0 3.2 0.00 0.05 0.00 69 1017.9
20260504043129 9 82 0.0 0.0 0.00 0.08 0.00 70 1017.9
20260504041634 8 173 0.0 0.0 0.00 0.10 0.00 71 1017.8
20260504040131 9 173 0.0 0.0 0.00 0.10 0.00 70 1017.8
20260504034624 9 161 0.0 0.0 0.00 0.10 0.00 70 1017.5
20260504033123 8 161 0.0 0.0 0.00 0.10 0.00 70 1017.4
20260504031626 9 155 0.0 0.0 0.00 0.10 0.00 69 1017.3
20260504030127 9 155 0.0 0.0 0.00 0.10 0.00 68 1017.4
20260504023122 9 159 0.0 3.2 0.00 0.10 0.00 66 1017.3
20260504021618 9 137 0.0 3.2 0.00 0.10 0.00 66 1017.3
20260504020135 10 169 0.0 3.2 0.00 0.10 0.00 65 1017.5
20260504014625 10 114 0.0 4.8 0.00 0.10 0.00 64 1017.6
20260504011611 10 48 3.2 6.4 0.00 0.10 0.00 62 1017.4
20260504010118 10 162 0.0 3.2 0.00 0.10 0.00 62 1017.4
20260504004610 10 148 1.6 4.8 0.00 0.10 0.00 62 1017.5
20260504003119 10 164 1.6 3.2 0.00 0.10 0.00 62 1017.4
20260504001613 10 175 3.2 6.4 0.00 0.10 0.00 61 1017.3
20260504000110 10 178 0.0 3.2 0.00 0.10 0.00 62 1017.5
20260503234612 10 90 1.6 4.8 0.00 0.10 0.00 62 1017.6
20260503233104 10 117 0.0 6.4 0.00 0.10 0.00 63 1017.5
20260503231602 10 185 0.0 3.2 0.00 0.10 0.00 63 1017.6
20260503230105 10 333 0.0 3.2 0.00 0.10 0.00 63 1017.5
20260503224607 10 336 1.6 6.4 0.00 0.13 0.00 62 1017.5